Time,TemperatureF,DewpointF,PressureIn,WindDirection,WindDirectionDegrees,WindSpeedMPH,WindSpeedGustMPH,Humidity,HourlyPrecipIn,Conditions,Clouds,dailyrainin,SoftwareType,DateUTC
2013-08-22 00:02:00,76.9,50.0,29.77,SSE,160,0.0,1.0,39,0.00,,,0.00,weatherlink.com 1.10,2013-08-22 07:02:00,
2013-08-22 00:17:00,75.7,52.0,29.77,NNW,337,5.0,6.0,44,0.00,,,0.00,weatherlink.com 1.10,2013-08-22 07:17:00,
2013-08-22 00:32:00,75.7,53.0,29.77,NNW,334,0.0,5.0,45,0.00,,,0.00,weatherlink.com 1.10,2013-08-22 07:32:00,
2013-08-22 00:47:00,75.4,53.0,29.78,NNW,346,3.0,4.0,45,0.00,,,0.00,weatherlink.com 1.10,2013-08-22 07:47:00,
2013-08-22 01:02:00,74.4,50.0,29.78,NNE,30,2.0,6.0,43,0.00,,,0.00,weatherlink.com 1.10,2013-08-22 08:02:00,
2013-08-22 01:17:00,74.6,51.0,29.78,East,92,5.0,5.0,44,0.00,,,0.00,weatherlink.com 1.10,2013-08-22 08:17:00,
2013-08-22 01:32:00,72.2,51.0,29.78,East,94,0.0,5.0,48,0.00,,,0.00,weatherlink.com 1.10,2013-08-22 08:32:00,
2013-08-22 01:47:00,72.2,51.0,29.77,East,93,0.0,5.0,47,0.00,,,0.00,weatherlink.com 1.10,2013-08-22 08:47:00,
2013-08-22 02:02:00,72.6,50.0,29.77,East,95,2.0,5.0,45,0.00,,,0.00,weatherlink.com 1.10,2013-08-22 09:02:00,
2013-08-22 02:17:00,71.2,49.0,29.77,East,101,5.0,7.0,46,0.00,,,0.00,weatherlink.com 1.10,2013-08-22 09:17:00,
2013-08-22 02:32:00,71.3,49.0,29.77,SSE,151,4.0,4.0,46,0.00,,,0.00,weatherlink.com 1.10,2013-08-22 09:32:00,
2013-08-22 02:47:00,72.6,49.0,29.77,SE,139,1.0,4.0,43,0.00,,,0.00,weatherlink.com 1.10,2013-08-22 09:47:00,
2013-08-22 03:02:00,72.0,48.0,29.77,SE,138,2.0,4.0,43,0.00,,,0.00,weatherlink.com 1.10,2013-08-22 10:02:00,
2013-08-22 03:17:00,72.0,49.0,29.77,SE,138,3.0,3.0,44,0.00,,,0.00,weatherlink.com 1.10,2013-08-22 10:17:00,
2013-08-22 03:32:00,70.3,49.0,29.77,ESE,120,3.0,4.0,47,0.00,,,0.00,weatherlink.com 1.10,2013-08-22 10:32:00,
2013-08-22 03:47:00,69.7,49.0,29.77,ESE,117,2.0,4.0,48,0.00,,,0.00,weatherlink.com 1.10,2013-08-22 10:47:00,
2013-08-22 05:32:00,68.9,49.0,29.79,ESE,112,0.0,3.0,49,0.00,,,0.00,weatherlink.com 1.10,2013-08-22 12:32:00,
2013-08-22 05:47:00,69.0,49.0,29.78,ESE,112,0.0,0.0,49,0.00,,,0.00,weatherlink.com 1.10,2013-08-22 12:47:00,
2013-08-22 06:02:00,68.4,48.0,29.79,ESE,112,3.0,3.0,49,0.00,,,0.00,weatherlink.com 1.10,2013-08-22 13:02:00,
2013-08-22 06:17:00,67.7,49.0,29.78,ESE,112,3.0,4.0,51,0.00,,,0.00,weatherlink.com 1.10,2013-08-22 13:17:00,
2013-08-22 06:32:00,67.0,48.0,29.79,ESE,112,0.0,3.0,51,0.00,,,0.00,weatherlink.com 1.10,2013-08-22 13:32:00,
2013-08-22 06:47:00,67.3,48.0,29.79,ESE,112,0.0,0.0,51,0.00,,,0.00,weatherlink.com 1.10,2013-08-22 13:47:00,
2013-08-22 07:02:00,68.3,49.0,29.80,ESE,112,4.0,4.0,50,0.00,,,0.00,weatherlink.com 1.10,2013-08-22 14:02:00,
2013-08-22 07:17:00,65.8,49.0,29.81,ESE,102,3.0,7.0,55,0.00,,,0.00,weatherlink.com 1.10,2013-08-22 14:17:00,
2013-08-22 07:32:00,67.0,49.0,29.80,ESE,107,0.0,3.0,53,0.00,,,0.00,weatherlink.com 1.10,2013-08-22 14:32:00,
2013-08-22 07:48:00,67.1,51.0,29.81,ESE,107,2.0,3.0,57,0.00,,,0.00,weatherlink.com 1.10,2013-08-22 14:48:00,
2013-08-22 08:03:00,64.5,51.0,29.82,ESE,123,5.0,8.0,63,0.00,,,0.00,weatherlink.com 1.10,2013-08-22 15:03:00,
2013-08-22 08:18:00,65.5,52.0,29.84,East,98,7.0,11.0,63,0.00,,,0.00,weatherlink.com 1.10,2013-08-22 15:18:00,
2013-08-22 08:33:00,63.1,55.0,29.85,ESE,116,4.0,8.0,75,0.01,,,0.01,weatherlink.com 1.10,2013-08-22 15:33:00,
2013-08-22 08:48:00,64.7,56.0,29.85,SE,139,6.0,21.0,73,0.02,,,0.02,weatherlink.com 1.10,2013-08-22 15:48:00,
2013-08-22 09:03:00,64.1,56.0,29.82,NNW,330,0.0,10.0,76,0.02,,,0.02,weatherlink.com 1.10,2013-08-22 16:03:00,
2013-08-22 09:18:00,64.0,57.0,29.82,SSE,149,9.0,13.0,77,0.02,,,0.02,weatherlink.com 1.10,2013-08-22 16:18:00,
2013-08-22 09:33:00,65.8,57.0,29.83,ENE,58,8.0,9.0,73,0.01,,,0.02,weatherlink.com 1.10,2013-08-22 16:33:00,
2013-08-22 09:48:00,66.9,58.0,29.83,NNE,31,0.0,5.0,73,0.00,,,0.02,weatherlink.com 1.10,2013-08-22 16:48:00,
2013-08-22 10:03:00,66.5,58.0,29.83,SW,230,2.0,7.0,73,0.00,,,0.02,weatherlink.com 1.10,2013-08-22 17:03:00,
2013-08-22 10:18:00,66.6,57.0,29.84,West,279,0.0,4.0,71,0.00,,,0.02,weatherlink.com 1.10,2013-08-22 17:18:00,
2013-08-22 10:33:00,67.3,58.0,29.84,NNW,337,1.0,7.0,72,0.00,,,0.02,weatherlink.com 1.10,2013-08-22 17:33:00,
2013-08-22 10:48:00,66.8,58.0,29.84,NNW,338,9.0,12.0,74,0.00,,,0.02,weatherlink.com 1.10,2013-08-22 17:48:00,
2013-08-22 11:03:00,67.0,59.0,29.85,NNW,333,12.0,13.0,75,0.00,,,0.02,weatherlink.com 1.10,2013-08-22 18:03:00,
2013-08-22 11:18:00,68.2,60.0,29.85,NNW,338,10.0,12.0,75,0.00,,,0.02,weatherlink.com 1.10,2013-08-22 18:18:00,
2013-08-22 11:48:00,69.0,58.0,29.86,WNW,299,8.0,11.0,68,0.00,,,0.02,weatherlink.com 1.10,2013-08-22 18:48:00,
2013-08-22 12:03:00,68.5,57.0,29.84,NW,326,11.0,11.0,68,0.00,,,0.02,weatherlink.com 1.10,2013-08-22 19:03:00,
2013-08-22 12:18:00,69.0,59.0,29.82,WNW,298,8.0,13.0,70,0.00,,,0.02,weatherlink.com 1.10,2013-08-22 19:18:00,
2013-08-22 12:33:00,73.0,57.0,29.82,WNW,292,0.0,6.0,58,0.00,,,0.02,weatherlink.com 1.10,2013-08-22 19:33:00,
2013-08-22 12:48:00,75.7,57.0,29.83,West,277,8.0,12.0,53,0.00,,,0.02,weatherlink.com 1.10,2013-08-22 19:48:00,
2013-08-22 13:03:00,77.5,57.0,29.83,NW,309,11.0,15.0,50,0.00,,,0.02,weatherlink.com 1.10,2013-08-22 20:03:00,
2013-08-22 13:18:00,78.6,58.0,29.83,NW,314,9.0,15.0,49,0.00,,,0.02,weatherlink.com 1.10,2013-08-22 20:18:00,
2013-08-22 13:33:00,77.5,57.0,29.82,NNW,345,7.0,14.0,50,0.00,,,0.02,weatherlink.com 1.10,2013-08-22 20:33:00,
2013-08-22 13:48:00,80.1,58.0,29.82,NNW,332,6.0,14.0,47,0.00,,,0.02,weatherlink.com 1.10,2013-08-22 20:48:00,
2013-08-22 14:03:00,79.6,57.0,29.83,NNW,337,10.0,14.0,46,0.00,,,0.02,weatherlink.com 1.10,2013-08-22 21:03:00,
2013-08-22 14:18:00,78.3,55.0,29.82,NW,324,8.0,13.0,44,0.00,,,0.02,weatherlink.com 1.10,2013-08-22 21:18:00,
2013-08-22 14:33:00,76.6,55.0,29.84,NW,311,5.0,13.0,48,0.00,,,0.02,weatherlink.com 1.10,2013-08-22 21:33:00,
2013-08-22 14:48:00,75.6,56.0,29.84,NNW,338,5.0,10.0,51,0.00,,,0.02,weatherlink.com 1.10,2013-08-22 21:48:00,
2013-08-22 15:03:00,72.6,58.0,29.84,NNW,334,7.0,12.0,60,0.02,,,0.04,weatherlink.com 1.10,2013-08-22 22:03:00,
2013-08-22 15:18:00,71.3,60.0,29.83,NW,319,5.0,8.0,68,0.02,,,0.04,weatherlink.com 1.10,2013-08-22 22:18:00,
2013-08-22 15:33:00,70.3,57.0,29.85,SW,233,8.0,20.0,63,0.02,,,0.04,weatherlink.com 1.10,2013-08-22 22:33:00,
2013-08-22 15:48:00,71.0,55.0,29.85,NW,311,4.0,17.0,57,0.02,,,0.04,weatherlink.com 1.10,2013-08-22 22:48:00,
2013-08-22 16:03:00,68.5,54.0,29.85,NNE,26,5.0,15.0,60,0.00,,,0.04,weatherlink.com 1.10,2013-08-22 23:03:00,
2013-08-22 16:18:00,69.1,53.0,29.85,NNE,12,0.0,7.0,56,0.00,,,0.04,weatherlink.com 1.10,2013-08-22 23:18:00,
2013-08-22 16:34:00,68.3,51.0,29.84,NE,42,0.0,9.0,55,0.00,,,0.04,weatherlink.com 1.10,2013-08-22 23:34:00,
2013-08-22 16:49:00,69.2,51.0,29.83,NE,36,0.0,6.0,53,0.00,,,0.04,weatherlink.com 1.10,2013-08-22 23:49:00,
2013-08-22 17:04:00,69.0,54.0,29.83,SE,134,6.0,10.0,59,0.00,,,0.04,weatherlink.com 1.10,2013-08-23 00:04:00,
2013-08-22 17:19:00,68.2,55.0,29.82,ESE,105,8.0,14.0,64,0.00,,,0.04,weatherlink.com 1.10,2013-08-23 00:19:00,
2013-08-22 17:34:00,68.8,57.0,29.83,ESE,114,9.0,16.0,66,0.00,,,0.04,weatherlink.com 1.10,2013-08-23 00:34:00,
2013-08-22 17:49:00,69.8,57.0,29.79,ESE,112,10.0,18.0,63,0.00,,,0.04,weatherlink.com 1.10,2013-08-23 00:49:00,
2013-08-22 18:04:00,69.6,57.0,29.80,SSE,151,6.0,8.0,64,0.00,,,0.04,weatherlink.com 1.10,2013-08-23 01:04:00,
2013-08-22 18:19:00,69.5,57.0,29.81,South,175,0.0,4.0,65,0.00,,,0.04,weatherlink.com 1.10,2013-08-23 01:19:00,
2013-08-22 18:34:00,69.8,57.0,29.81,South,175,4.0,5.0,65,0.00,,,0.04,weatherlink.com 1.10,2013-08-23 01:34:00,
2013-08-22 18:49:00,69.3,57.0,29.82,NNW,342,0.0,5.0,64,0.00,,,0.04,weatherlink.com 1.10,2013-08-23 01:49:00,
2013-08-22 19:04:00,70.0,54.0,29.82,WNW,295,0.0,6.0,57,0.00,,,0.04,weatherlink.com 1.10,2013-08-23 02:04:00,
2013-08-22 19:19:00,68.9,53.0,29.82,NW,316,0.0,9.0,57,0.00,,,0.04,weatherlink.com 1.10,2013-08-23 02:19:00,
2013-08-22 19:34:00,68.2,53.0,29.82,NNW,334,1.0,5.0,58,0.00,,,0.04,weatherlink.com 1.10,2013-08-23 02:34:00,
2013-08-22 19:49:00,66.9,53.0,29.83,NNW,345,0.0,6.0,62,0.00,,,0.04,weatherlink.com 1.10,2013-08-23 02:49:00,
2013-08-22 20:04:00,66.0,53.0,29.83,NW,313,3.0,8.0,64,0.00,,,0.04,weatherlink.com 1.10,2013-08-23 03:04:00,
2013-08-22 20:19:00,64.6,55.0,29.84,WNW,297,4.0,7.0,70,0.00,,,0.04,weatherlink.com 1.10,2013-08-23 03:19:00,
2013-08-22 20:34:00,64.3,55.0,29.85,NNW,330,3.0,6.0,72,0.00,,,0.04,weatherlink.com 1.10,2013-08-23 03:34:00,
2013-08-22 20:49:00,63.4,55.0,29.86,North,360,1.0,5.0,74,0.00,,,0.04,weatherlink.com 1.10,2013-08-23 03:49:00,
2013-08-22 21:04:00,63.0,55.0,29.86,NNE,30,3.0,5.0,75,0.00,,,0.04,weatherlink.com 1.10,2013-08-23 04:04:00,
2013-08-22 21:19:00,62.5,55.0,29.86,NE,36,3.0,5.0,76,0.00,,,0.04,weatherlink.com 1.10,2013-08-23 04:19:00,
2013-08-22 21:34:00,62.1,55.0,29.87,ENE,62,3.0,6.0,77,0.00,,,0.04,weatherlink.com 1.10,2013-08-23 04:34:00,
2013-08-22 21:49:00,61.2,54.0,29.88,East,96,0.0,5.0,78,0.00,,,0.04,weatherlink.com 1.10,2013-08-23 04:49:00,
2013-08-22 22:04:00,60.0,54.0,29.88,SE,125,4.0,5.0,81,0.00,,,0.04,weatherlink.com 1.10,2013-08-23 05:04:00,
2013-08-22 22:19:00,59.4,54.0,29.88,ESE,103,3.0,5.0,82,0.00,,,0.04,weatherlink.com 1.10,2013-08-23 05:19:00,
2013-08-22 22:34:00,59.3,54.0,29.87,ESE,115,4.0,5.0,82,0.00,,,0.04,weatherlink.com 1.10,2013-08-23 05:34:00,
2013-08-22 22:49:00,59.3,53.0,29.87,ESE,106,1.0,5.0,79,0.00,,,0.04,weatherlink.com 1.10,2013-08-23 05:49:00,
2013-08-22 23:04:00,59.1,52.0,29.87,East,92,0.0,8.0,78,0.00,,,0.04,weatherlink.com 1.10,2013-08-23 06:04:00,
2013-08-22 23:19:00,58.2,52.0,29.87,ESE,111,0.0,3.0,81,0.00,,,0.04,weatherlink.com 1.10,2013-08-23 06:19:00,
2013-08-22 23:34:00,57.0,52.0,29.88,SE,125,5.0,7.0,84,0.00,,,0.04,weatherlink.com 1.10,2013-08-23 06:34:00,
2013-08-22 23:49:00,56.8,52.0,29.87,ESE,115,4.0,8.0,83,0.00,,,0.04,weatherlink.com 1.10,2013-08-23 06:49:00,